sat.trackr.live / text

‹ back to catalog

HULIANWANG DIGUI-45

NORAD 65048 · 2025-162F

PAYLOAD ACTIVE UNKNOWN

§ Identity

Operator
Country
PRC
Launch date
2025-07-30
Launch site
WSC
Launch vehicle
Mass (kg)
RCS (m²)

External: N2YO · Heavens-Above · Gunter

§ Orbital elements

Epoch: 2026-09-21T17:31:01.933536Z

Period
108.33 min
Inclination
50.0040°
Eccentricity
0.0000763
Mean motion
13.29327059 rev/d
Perigee alt
1,148.7 km
Apogee alt
1,149.9 km
Semi-major
7,527.4 km
B*
9.5792e-5
RAAN
279.4519°
Arg perigee
287.2398°
Mean anomaly
72.8391°
Rev number
5,620

§ Raw data

HULIANWANG DIGUI-451 65048U 25162F   26264.72988349 -.00000080  00000+0  95792-4 0  99932 65048  50.0040 279.4519 0000763 287.2398  72.8391 13.29327059 56200

JSON: /api/v1/satellites/65048 · /tle

For live sub-satellite position, see the globe view (requires WebGL).

§ Visibility from observer

Set your observer location to see the next 7 days of passes ≥ 10°. The values pass through the URL so the page stays shareable.

No JS? Fill the form by hand. The geolocation button needs JavaScript.